[[{"header":{"parameterUnit":"m.s-1","parameterCategory":1,"la1":30.2991,"la2":30.254,"lo1":-89.0895,"lo2":-89.0444,"dy":0.0017,"dx":0.0017,"nx":28,"ny":28,"refTime":"2023-08-14T09:00:00:Z","depth":0,"parameterNumber":2,"parameterNumberName":"U-component_of_WINDS"},"data":[0,0,0,0,0,0,0,0,0,0,0,0,0,0,0,0,0,0,0,0,0,0,0,0,0,0,0,0,0,0,0,0,0,0,0,0,0,0,0,0,0,0,0,0,0,0,0,0,0,0,0,0,0,0,0,0,0,0,5.3174,5.3175,0,5.33,5.3301,5.3303,5.3245,5.3241,5.3238,5.3235,5.3362,5.3368,5.3375,0,0,0,0,0,0,0,0,0,0,0,0,0,5.2878,5.2884,5.3173,5.3175,5.3177,5.33,5.3301,5.3303,5.3245,5.3241,5.3237,5.3234,5.336,5.3368,5.3375,0,0,0,0,0,0,0,0,0,0,0,0,0,5.3006,5.2886,5.3173,5.3163,5.3163,5.3299,5.3301,5.3303,5.3246,5.3241,5.3236,5.3232,5.3358,5.3367,5.3376,5.353,0,0,5.3405,5.3409,0,0,0,0,0,0,0,0,5.2998,5.3016,5.3163,5.3164,5.3164,5.3252,5.3244,5.3379,5.3247,5.3214,5.3235,5.323,5.3329,5.3341,5.3375,5.3535,5.3541,5.3406,5.3412,5.3416,5.3419,0,0,0,0,0,0,0,5.299,5.3011,5.3223,5.3165,5.3166,5.315,5.3163,5.3269,5.3297,5.3217,5.3213,5.3229,5.3329,5.3366,5.3377,5.3543,5.3406,5.3414,5.342,5.3424,5.3831,5.3836,0,0,0,0,0,0,5.2982,5.3004,5.3219,5.3227,5.3068,5.3159,5.3174,5.3228,5.3295,5.3301,5.3233,5.3226,5.3352,5.3366,5.3381,5.3562,5.3416,5.3425,5.343,5.3826,5.3832,5.3838,0,0,0,0,0,0,5.2975,5.3001,5.3214,5.3114,5.314,5.317,5.3231,5.3233,5.327,5.3307,5.3312,5.3266,5.3349,5.3368,5.3492,5.3565,5.3429,5.3438,5.382,5.3828,5.3835,5.3926,0,0,0,0,0,0,5.2967,5.3,5.3059,5.3116,5.3146,5.3325,5.3236,5.3239,5.3287,5.3279,5.3339,5.3345,5.3346,5.3478,5.3502,5.3576,5.3445,5.3813,5.3823,5.3832,5.3916,5.3935,5.3952,0,0,0,0,0,5.2957,5.308,5.3063,5.3089,5.3221,5.3329,5.3346,5.3345,5.3293,5.3352,5.3376,5.3343,5.3554,5.3492,5.3517,5.3595,5.3809,5.3821,5.3832,5.3908,5.3932,5.3951,0,0,0,0,0,0,5.3031,5.3088,5.3069,5.3214,5.3267,5.3319,5.3394,5.3371,5.3439,5.3429,5.3425,5.3439,5.3567,5.3594,5.3523,5.3745,5.3673,5.369,5.3722,5.3745,5.3763,5.3752,5.3453,0,0,0,0,0,5.3064,5.3148,5.3193,5.3317,5.3344,5.3365,5.3412,5.3407,5.3461,5.3483,5.3515,5.3569,5.3646,5.3698,5.3772,5.3921,5.3931,5.3987,5.4005,5.4019,5.4033,5.4109,5.4134,5.3876,5.3875,5.3875,0,0,5.3134,5.3175,5.3228,5.3333,5.3373,5.3457,5.3384,5.3478,5.3539,5.3497,5.3615,5.3641,5.37,5.3836,5.3897,5.3862,5.4107,5.4034,5.4045,5.4051,5.4124,5.4148,5.417,5.3883,5.3882,5.3881,0,0,5.3303,5.3344,5.345,5.3492,5.3554,5.3566,5.3592,5.3647,5.3662,5.3781,5.3749,5.3823,5.3958,5.4,5.4039,5.4222,5.4193,5.4246,5.4339,5.4413,5.4433,5.4451,5.4512,5.4535,5.4261,5.4261,5.4261,0,5.3381,5.3508,5.3507,5.3603,5.3648,5.3614,5.3719,5.376,5.3842,5.3873,5.3834,5.4,5.4038,5.4181,5.4225,5.426,5.4286,5.4238,5.4431,5.4449,5.4465,5.4524,5.4547,5.4267,5.4266,5.4266,5.4265,0,5.3599,5.3688,5.3766,5.3846,5.3901,5.4001,5.4013,5.4068,5.4058,5.4074,5.4194,5.4237,5.4318,5.4352,5.4344,5.4494,5.4469,5.4431,5.4357,5.4496,5.455,5.4573,5.4275,5.4273,5.4271,5.427,0,0,5.3818,5.3895,5.3923,5.3957,5.4022,5.409,5.4188,5.4266,5.4312,5.437,5.4449,5.4564,5.4527,5.4572,5.4568,5.4634,5.4771,5.4586,5.4588,5.4616,5.4933,5.4959,5.4985,5.4753,5.4757,5.4761,5.4927,0,5.3988,5.4159,5.416,5.4317,5.4396,5.4364,5.4448,5.4496,5.4514,5.4582,5.4601,5.4681,5.4629,5.4655,5.4719,5.474,5.4834,5.4729,5.4823,5.4827,5.4806,5.5014,5.5043,5.5197,5.4948,5.4952,5.4955,0,5.421,5.4274,5.4439,5.4489,5.4522,5.4598,5.4668,5.4736,5.4789,5.4796,5.4845,5.483,5.4927,5.4853,5.4984,5.4913,5.4952,5.4968,5.4974,5.498,5.4897,5.5022,5.5247,5.5268,5.4989,5.4986,5.4984,0,5.4347,5.4476,5.4589,5.462,5.4683,5.4736,5.4765,5.4813,5.4859,5.4921,5.495,5.5022,5.5061,5.5116,5.5121,5.5067,5.5251,5.5179,5.5257,5.5257,5.5295,5.5292,5.5525,5.5327,5.5326,5.5326,5.5326,0,5.4536,5.4636,5.4651,5.4721,5.4832,5.4832,5.4941,5.4964,5.5007,5.5079,5.5057,5.5124,5.5128,5.5197,5.5201,5.5306,5.5325,5.5332,5.5331,5.5332,5.533,5.5355,5.5342,5.5332,5.5331,5.533,5.5329,0,5.4707,5.4722,5.4842,5.4892,5.4906,5.4985,5.5026,5.5091,5.5106,5.5197,5.5219,5.5242,5.5321,5.5332,5.5426,5.5428,5.5553,5.5544,5.5535,5.5532,5.5609,5.56,5.5863,5.5895,5.5679,5.5682,5.5683,0,5.4824,5.4901,5.4957,5.5004,5.5035,5.5111,5.5157,5.516,5.5209,5.5273,5.533,5.5407,5.5469,5.5597,5.5621,5.5691,5.568,5.5768,5.5691,5.5688,5.5676,5.567,5.5676,5.5781,5.5784,5.5786,5.5787,0,5.5029,5.5032,5.51,5.5171,5.5227,5.5283,5.5335,5.5374,5.5382,5.5439,5.5519,5.5567,5.5662,5.5737,5.5807,5.5834,5.5811,5.5812,5.5833,5.5832,5.5823,5.5824,5.5572,5.5805,5.5803,5.5802,5.5801,5.58,5.5174,5.5239,5.5288,5.5364,5.5404,5.5452,5.5515,5.5537,5.5605,5.5681,5.5679,5.5767,5.5815,5.5905,5.5937,5.6005,5.5976,5.6008,5.6015,5.6022,5.6027,5.5815,5.6018,5.6018,5.6017,5.6017,5.6016,0,5.5374,5.5404,5.5474,5.5547,5.5606,5.5581,5.5637,5.5687,5.5765,5.5812,5.5873,5.5964,5.6037,5.6066,5.6137,5.6185,5.6176,5.6203,5.6198,5.6203,5.6051,5.6024,5.6209,5.6209,5.6209,5.6209,5.6209,5.6209,5.5485,5.5592,5.5601,5.5726,5.5755,5.5841,5.5874,5.5918,5.5955,5.6058,5.6118,5.6137,5.6176,5.6249,5.6314,5.632,5.6345,5.6376,5.6378,5.6234,5.6215,5.6196,5.617,5.6383,5.6383,5.6524,5.6525,5.6526]},{"header":{"parameterUnit":"m.s-1","parameterCategory":1,"la1":30.2991,"la2":30.254,"lo1":-89.0895,"lo2":-89.0444,"dy":0.0017,"dx":0.0017,"nx":28,"ny":28,"refTime":"2023-08-14T09:00:00:Z","depth":0,"parameterNumber":3,"parameterNumberName":"V-component_of_WINDS"},"data":[0,0,0,0,0,0,0,0,0,0,0,0,0,0,0,0,0,0,0,0,0,0,0,0,0,0,0,0,0,0,0,0,0,0,0,0,0,0,0,0,0,0,0,0,0,0,0,0,0,0,0,0,0,0,0,0,0,0,4.0121,4.0122,0,4.0161,4.0162,4.0162,4.012,4.0119,4.0117,4.0116,4.0154,4.0156,4.0159,0,0,0,0,0,0,0,0,0,0,0,0,0,4.0005,4.0007,4.0121,4.0122,4.0122,4.0161,4.0162,4.0162,4.0121,4.0119,4.0117,4.0115,4.0153,4.0156,4.0159,0,0,0,0,0,0,0,0,0,0,0,0,0,4.0051,4.0008,4.0121,4.0106,4.0105,4.0161,4.0162,4.0162,4.0121,4.0119,4.0116,4.0114,4.0152,4.0156,4.0159,4.0231,0,0,4.0171,4.0172,0,0,0,0,0,0,0,0,4.0049,4.0055,4.0108,4.0107,4.0107,4.0133,4.0135,4.0185,4.0122,4.0115,4.0116,4.0113,4.0149,4.0153,4.0165,4.0233,4.0234,4.0171,4.0173,4.0175,4.0176,0,0,0,0,0,0,0,4.0045,4.0054,4.0137,4.0109,4.0108,4.0096,4.01,4.0144,4.0145,4.0115,4.0113,4.0118,4.0148,4.0162,4.0166,4.0235,4.0171,4.0174,4.0177,4.0178,4.036,4.0362,0,0,0,0,0,0,4.0044,4.0051,4.0136,4.0138,4.0071,4.01,4.0105,4.0127,4.0144,4.0145,4.012,4.0116,4.0157,4.0162,4.0167,4.025,4.0175,4.0179,4.0181,4.0357,4.036,4.0363,0,0,0,0,0,0,4.0042,4.0052,4.0134,4.0094,4.0103,4.0105,4.013,4.0129,4.0143,4.0148,4.0147,4.0134,4.0155,4.0162,4.0215,4.0251,4.018,4.0184,4.0354,4.0358,4.0362,4.0418,0,0,0,0,0,0,4.0039,4.0052,4.008,4.0095,4.0106,4.0183,4.0133,4.0132,4.015,4.0145,4.0161,4.0161,4.0153,4.0209,4.0219,4.0255,4.0187,4.0351,4.0356,4.0361,4.0413,4.0423,4.0432,0,0,0,0,0,4.0035,4.0094,4.0082,4.0092,4.0141,4.0185,4.0191,4.0181,4.0153,4.0181,4.0183,4.0161,4.0246,4.0215,4.0225,4.0263,4.0349,4.0355,4.036,4.0409,4.0421,4.0432,0,0,0,0,0,0,4.0083,4.0096,4.0082,4.0148,4.0166,4.0178,4.0212,4.0196,4.0221,4.0215,4.0201,4.0205,4.0261,4.0267,4.0233,4.0332,4.0292,4.03,4.0326,4.0338,4.0347,4.0344,4.019,0,0,0,0,0,4.0102,4.0137,4.0146,4.0203,4.0213,4.0211,4.023,4.0221,4.0238,4.0245,4.0252,4.0268,4.0298,4.0319,4.0347,4.0414,4.0415,4.0445,4.0454,4.0462,4.0469,4.0503,4.0515,4.0382,4.0382,4.0382,0,0,4.014,4.0151,4.0174,4.0213,4.0226,4.0261,4.0218,4.0258,4.0283,4.0251,4.0301,4.0307,4.0324,4.0384,4.0411,4.0391,4.0506,4.0469,4.0476,4.0478,4.051,4.0522,4.0534,4.0386,4.0385,4.0385,0,0,4.0227,4.0241,4.0289,4.0302,4.0322,4.032,4.0331,4.0346,4.0348,4.0399,4.0374,4.0404,4.0457,4.047,4.0483,4.0574,4.0553,4.0583,4.0633,4.0666,4.0677,4.0686,4.0717,4.0728,4.059,4.059,4.059,0,4.0272,4.0326,4.0316,4.0357,4.0374,4.0346,4.0394,4.0407,4.0435,4.0446,4.0424,4.0488,4.0498,4.056,4.0582,4.0594,4.0605,4.0581,4.0677,4.0686,4.0694,4.0723,4.0735,4.0594,4.0593,4.0593,4.0593,0,4.0379,4.0417,4.0453,4.048,4.0501,4.0546,4.054,4.0563,4.0551,4.0552,4.0602,4.0613,4.0642,4.0656,4.0646,4.0716,4.0702,4.0679,4.0639,4.071,4.0737,4.0748,4.0599,4.0597,4.0596,4.0596,0,0,4.0499,4.0519,4.0532,4.0544,4.0562,4.059,4.0633,4.0661,4.068,4.0699,4.0733,4.0778,4.0755,4.0771,4.0761,4.079,4.0859,4.0763,4.0763,4.0779,4.0935,4.0952,4.0965,4.0846,4.0848,4.085,4.0933,0,4.0585,4.066,4.0651,4.0721,4.0754,4.0728,4.0764,4.0778,4.0779,4.0806,4.0807,4.0838,4.0807,4.0816,4.0844,4.0845,4.089,4.0839,4.0876,4.0877,4.0871,4.098,4.0998,4.1076,4.0944,4.0945,4.0947,0,4.0697,4.072,4.0794,4.0806,4.082,4.0853,4.0877,4.0904,4.0919,4.0918,4.0934,4.0919,4.0959,4.0919,4.0973,4.0939,4.0953,4.0956,4.0959,4.0961,4.0916,4.0983,4.1101,4.1112,4.0964,4.0962,4.0961,0,4.0775,4.0825,4.0875,4.0885,4.0901,4.0924,4.0932,4.0945,4.0962,4.0983,4.0994,4.102,4.1033,4.1053,4.1044,4.1016,4.11,4.1059,4.1098,4.1098,4.1116,4.1115,4.1236,4.1128,4.1127,4.1127,4.1127,0,4.0872,4.0918,4.091,4.094,4.099,4.0978,4.1027,4.1031,4.1043,4.1072,4.1051,4.1079,4.1067,4.1094,4.1087,4.1132,4.1139,4.1138,4.1135,4.1139,4.1139,4.1147,4.1141,4.113,4.113,4.1129,4.1128,0,4.0967,4.0964,4.1016,4.1027,4.103,4.1066,4.1074,4.1102,4.1101,4.1139,4.1147,4.1145,4.1175,4.1169,4.1202,4.1197,4.1253,4.1245,4.1248,4.1246,4.1285,4.1281,4.1415,4.1431,4.1313,4.1314,4.1315,0,4.1029,4.1063,4.1077,4.1096,4.1105,4.1135,4.1153,4.1142,4.1161,4.118,4.1205,4.1233,4.1256,4.1305,4.1306,4.1331,4.1321,4.1367,4.1325,4.1327,4.132,4.1318,4.132,4.1375,4.1376,4.1377,4.1378,0,4.1138,4.1134,4.1161,4.1186,4.1208,4.1227,4.1244,4.1261,4.1251,4.1273,4.1304,4.1321,4.1355,4.1383,4.1406,4.1411,4.1393,4.1391,4.1401,4.1405,4.1405,4.1404,4.127,4.1388,4.1387,4.1386,4.1386,4.1385,4.1217,4.1246,4.126,4.1289,4.1301,4.1317,4.1343,4.1345,4.1371,4.1398,4.139,4.1425,4.1437,4.1466,4.1475,4.1501,4.1484,4.1499,4.1502,4.1506,4.151,4.1402,4.1505,4.1505,4.1504,4.1504,4.1504,0,4.1324,4.1331,4.1359,4.1383,4.1406,4.1387,4.1405,4.1425,4.1456,4.1469,4.1492,4.1526,4.1553,4.1555,4.158,4.16,4.1592,4.1607,4.1605,4.1606,4.1524,4.1513,4.1613,4.1613,4.1613,4.1613,4.1613,4.1613,4.1382,4.1429,4.1427,4.1478,4.1485,4.1519,4.1531,4.1545,4.1555,4.1595,4.1617,4.1619,4.1628,4.1653,4.1676,4.1676,4.1685,4.1703,4.1699,4.1623,4.1612,4.1602,4.159,4.1705,4.1706,4.1779,4.1779,4.178]}]]